THY2TK LTFM-OSAP

Flight info

Callsign THY2TK
Flight time 1h 22m
Altitude 33000
Route VICEN1G/17R VICEN UT57 VEVUD UT341 BAG UL605 GAZ UB36 TUSYR B544 GOLF
Aircraft B739/M-SDE2E3FGHIRWXY/LB1

Departure

Time 2026-04-24 19:46
Airport İstanbul Airport (LTFM)

Arrival

Time 2026-04-24 21:09
Airport Aleppo International Airport (OSAP)
Time Latitude Longitude Altitude Speed Heading
2026-04-24 19:12 41.26704 28.73456 333 ft 0 kts 92°
2026-04-24 19:29 41.26704 28.73434 328 ft 4 kts 88°
2026-04-24 19:29 41.26701 28.73398 328 ft 4 kts 78°
2026-04-24 19:30 41.26693 28.73365 329 ft 4 kts 61°
2026-04-24 19:30 41.26678 28.73340 331 ft 4 kts 23°
2026-04-24 19:30 41.26665 28.73336 331 ft 1 kts 359°
2026-04-24 19:30 41.26663 28.73336 331 ft 0 kts 359°
2026-04-24 19:34 41.26672 28.73335 331 ft 3 kts 359°
2026-04-24 19:34 41.26701 28.73334 331 ft 6 kts 358°
2026-04-24 19:35 41.26728 28.73334 330 ft 1 kts 358°
2026-04-24 19:35 41.26747 28.73333 332 ft 6 kts 358°
2026-04-24 19:35 41.26814 28.73331 329 ft 13 kts 358°
2026-04-24 19:35 41.26908 28.73327 331 ft 14 kts 358°
2026-04-24 19:36 41.27000 28.73324 332 ft 13 kts 352°
2026-04-24 19:36 41.27040 28.73231 333 ft 13 kts 270°
2026-04-24 19:36 41.27059 28.73123 331 ft 12 kts 317°
2026-04-24 19:36 41.27141 28.73099 333 ft 12 kts 359°
2026-04-24 19:37 41.27225 28.73097 333 ft 12 kts 359°
2026-04-24 19:37 41.27308 28.73095 333 ft 12 kts 359°
2026-04-24 19:37 41.27387 28.73093 332 ft 10 kts 359°
2026-04-24 19:37 41.27440 28.73091 329 ft 7 kts 359°
2026-04-24 19:38 41.27495 28.73090 331 ft 9 kts 359°
2026-04-24 19:38 41.27562 28.73082 330 ft 11 kts 339°
2026-04-24 19:38 41.27610 28.72998 331 ft 12 kts 320°
2026-04-24 19:38 41.27697 28.72969 330 ft 14 kts 358°
2026-04-24 19:39 41.27803 28.72967 333 ft 16 kts 359°
2026-04-24 19:39 41.27925 28.72964 333 ft 19 kts 359°
2026-04-24 19:39 41.28061 28.72961 331 ft 21 kts 359°
2026-04-24 19:39 41.28210 28.72957 332 ft 22 kts 359°
2026-04-24 19:40 41.28369 28.72954 332 ft 23 kts 358°
2026-04-24 19:40 41.28528 28.72950 332 ft 22 kts 359°
2026-04-24 19:40 41.28682 28.72946 331 ft 22 kts 359°
2026-04-24 19:40 41.28835 28.72943 330 ft 23 kts 359°
2026-04-24 19:41 41.28998 28.72939 331 ft 24 kts 359°
2026-04-24 19:41 41.29169 28.72935 329 ft 24 kts 359°
2026-04-24 19:41 41.29332 28.72931 329 ft 23 kts 359°
2026-04-24 19:41 41.29413 28.72929 333 ft 0 kts 359°
2026-04-24 19:44 41.29424 28.72929 330 ft 3 kts 359°
2026-04-24 19:44 41.29452 28.72925 329 ft 5 kts 344°
2026-04-24 19:44 41.29480 28.72886 333 ft 7 kts 296°
2026-04-24 19:44 41.29487 28.72819 333 ft 8 kts 272°
2026-04-24 19:45 41.29490 28.72733 333 ft 11 kts 271°
2026-04-24 19:45 41.29488 28.72605 333 ft 16 kts 269°
2026-04-24 19:45 41.29477 28.72485 330 ft 10 kts 231°
2026-04-24 19:45 41.29409 28.72466 333 ft 10 kts 179°
2026-04-24 19:46 41.29254 28.72468 331 ft 54 kts 179°
2026-04-24 19:46 41.28618 28.72479 331 ft 126 kts 179°
2026-04-24 19:46 41.27554 28.72491 450 ft 171 kts 180°
2026-04-24 19:46 41.26352 28.72488 1225 ft 170 kts 180°
2026-04-24 19:47 41.25120 28.72528 1864 ft 182 kts 178°
2026-04-24 19:47 41.23807 28.72612 2342 ft 203 kts 177°
2026-04-24 19:47 41.22338 28.72700 2568 ft 224 kts 178°
2026-04-24 19:47 41.20737 28.72789 2938 ft 234 kts 178°
2026-04-24 19:48 41.19090 28.72823 3435 ft 239 kts 187°
2026-04-24 19:48 41.17532 28.72070 3926 ft 242 kts 212°
2026-04-24 19:48 41.14926 28.69104 4895 ft 254 kts 224°
2026-04-24 19:49 41.12012 28.66056 5731 ft 278 kts 197°
2026-04-24 19:49 41.08156 28.66173 7176 ft 283 kts 172°
2026-04-24 19:50 41.02188 28.67305 9262 ft 293 kts 172°
2026-04-24 19:50 41.00155 28.67676 9958 ft 297 kts 172°
2026-04-24 19:51 40.95876 28.68438 10550 ft 330 kts 172°
2026-04-24 19:51 40.93533 28.68851 10707 ft 350 kts 172°
2026-04-24 19:52 40.88450 28.69716 11126 ft 382 kts 173°
2026-04-24 19:52 40.85791 28.70133 11647 ft 387 kts 173°
2026-04-24 19:52 40.83113 28.70548 12256 ft 389 kts 173°
2026-04-24 19:52 40.80448 28.70962 12834 ft 392 kts 173°
2026-04-24 19:53 40.77726 28.71388 13412 ft 396 kts 173°
2026-04-24 19:53 40.74979 28.71820 13952 ft 399 kts 173°
2026-04-24 19:53 40.69423 28.72757 14961 ft 405 kts 167°
2026-04-24 19:54 40.66824 28.74185 15427 ft 409 kts 147°
2026-04-24 19:54 40.64693 28.76656 15921 ft 410 kts 128°
2026-04-24 19:54 40.62979 28.79671 16399 ft 413 kts 125°
2026-04-24 19:54 40.61284 28.82764 16823 ft 418 kts 125°
2026-04-24 19:55 40.60708 28.83805 16969 ft 419 kts 126°
2026-04-24 19:55 40.57794 28.88955 17718 ft 425 kts 126°
2026-04-24 19:55 40.56164 28.92204 18135 ft 428 kts 113°
2026-04-24 19:55 40.55339 28.95955 18530 ft 429 kts 95°
2026-04-24 19:56 40.55345 28.99858 19000 ft 427 kts 84°
2026-04-24 19:56 40.55574 29.03760 19439 ft 429 kts 84°
2026-04-24 19:56 40.55808 29.07675 19842 ft 431 kts 84°
2026-04-24 19:56 40.56012 29.11627 20246 ft 434 kts 85°
2026-04-24 19:57 40.56192 29.15591 20681 ft 436 kts 85°
2026-04-24 19:57 40.56422 29.19570 21106 ft 437 kts 82°
2026-04-24 19:57 40.56791 29.23543 21520 ft 439 kts 80°
2026-04-24 19:57 40.57211 29.27524 21907 ft 441 kts 80°
2026-04-24 19:58 40.57631 29.31529 22283 ft 443 kts 80°
2026-04-24 19:58 40.58020 29.35419 22656 ft 446 kts 81°
2026-04-24 19:58 40.58386 29.39257 23021 ft 448 kts 81°
2026-04-24 19:58 40.58767 29.43329 23396 ft 450 kts 81°
2026-04-24 19:59 40.59149 29.47431 23749 ft 452 kts 81°
2026-04-24 19:59 40.59530 29.51536 24081 ft 453 kts 81°
2026-04-24 19:59 40.59913 29.55657 24439 ft 454 kts 81°
2026-04-24 19:59 40.60295 29.59781 24795 ft 455 kts 81°
2026-04-24 20:00 40.60676 29.63912 25155 ft 455 kts 81°
2026-04-24 20:00 40.61057 29.68056 25496 ft 456 kts 81°
2026-04-24 20:00 40.61436 29.72204 25812 ft 457 kts 81°
2026-04-24 20:00 40.61816 29.76377 26143 ft 459 kts 81°
2026-04-24 20:01 40.62196 29.80554 26458 ft 460 kts 81°
2026-04-24 20:01 40.62574 29.84745 26777 ft 461 kts 80°
2026-04-24 20:01 40.62952 29.88939 27095 ft 462 kts 80°
2026-04-24 20:01 40.63326 29.93090 27419 ft 462 kts 80°
2026-04-24 20:02 40.63581 29.95922 27706 ft 461 kts 80°
2026-04-24 20:02 40.64073 30.01434 28432 ft 455 kts 80°
2026-04-24 20:02 40.64441 30.05561 28971 ft 451 kts 80°
2026-04-24 20:02 40.64804 30.09654 29425 ft 449 kts 80°
2026-04-24 20:03 40.65166 30.13733 29847 ft 448 kts 79°
2026-04-24 20:03 40.65530 30.17854 30262 ft 446 kts 79°
2026-04-24 20:03 40.65882 30.21853 30566 ft 445 kts 80°
2026-04-24 20:03 40.66177 30.25922 30779 ft 450 kts 86°
2026-04-24 20:04 40.65738 30.30032 30948 ft 460 kts 103°
2026-04-24 20:04 40.64454 30.33924 31213 ft 467 kts 119°
2026-04-24 20:04 40.63172 30.36282 31430 ft 469 kts 125°
2026-04-24 20:04 40.61122 30.39617 31749 ft 468 kts 126°
2026-04-24 20:05 40.58408 30.44023 32085 ft 468 kts 126°
2026-04-24 20:05 40.57042 30.46302 32242 ft 469 kts 125°
2026-04-24 20:05 40.55099 30.49735 32487 ft 467 kts 120°
2026-04-24 20:05 40.53544 30.53460 32749 ft 463 kts 111°
2026-04-24 20:06 40.52426 30.57346 32997 ft 459 kts 102°
2026-04-24 20:06 40.51026 30.65549 33062 ft 461 kts 100°
2026-04-24 20:07 40.49840 30.72427 33058 ft 460 kts 101°
2026-04-24 20:07 40.47787 30.81812 33067 ft 460 kts 105°
2026-04-24 20:08 40.45833 30.89808 33072 ft 460 kts 105°
2026-04-24 20:08 40.43907 30.97815 33075 ft 460 kts 105°
2026-04-24 20:09 40.41998 31.05850 33083 ft 461 kts 105°
2026-04-24 20:09 40.40084 31.13898 33072 ft 463 kts 105°
2026-04-24 20:10 40.38159 31.21977 33084 ft 464 kts 104°
2026-04-24 20:10 40.36681 31.30226 33073 ft 465 kts 99°
2026-04-24 20:11 40.35404 31.38549 33072 ft 467 kts 99°
2026-04-24 20:11 40.34097 31.46850 33064 ft 469 kts 100°
2026-04-24 20:12 40.32733 31.55227 33063 ft 471 kts 101°
2026-04-24 20:12 40.31338 31.63691 33073 ft 473 kts 101°
2026-04-24 20:13 40.29943 31.72121 33056 ft 474 kts 101°
2026-04-24 20:13 40.28549 31.80516 33059 ft 476 kts 101°
2026-04-24 20:14 40.27137 31.88987 33049 ft 476 kts 101°
2026-04-24 20:14 40.25550 31.97411 33054 ft 477 kts 105°
2026-04-24 20:15 40.23695 32.05752 33065 ft 477 kts 106°
2026-04-24 20:15 40.21826 32.14091 33066 ft 478 kts 106°
2026-04-24 20:16 40.19982 32.22458 33063 ft 479 kts 106°
2026-04-24 20:16 40.18145 32.30841 33044 ft 480 kts 106°
2026-04-24 20:17 40.16295 32.39253 33061 ft 482 kts 106°
2026-04-24 20:17 40.13497 32.51903 33040 ft 484 kts 107°
2026-04-24 20:18 40.11616 32.60363 33055 ft 485 kts 107°
2026-04-24 20:18 40.09722 32.68857 33052 ft 488 kts 107°
2026-04-24 20:19 40.07770 32.77354 33033 ft 489 kts 112°
2026-04-24 20:19 40.04572 32.85131 33038 ft 485 kts 131°
2026-04-24 20:20 40.00277 32.91913 33063 ft 486 kts 133°
2026-04-24 20:20 39.95927 32.98670 33040 ft 488 kts 133°
2026-04-24 20:21 39.91626 33.05440 33052 ft 489 kts 133°
2026-04-24 20:21 39.87298 33.12298 33043 ft 490 kts 133°
2026-04-24 20:22 39.82960 33.19164 33031 ft 491 kts 133°
2026-04-24 20:22 39.78619 33.26016 33047 ft 491 kts 133°
2026-04-24 20:23 39.74269 33.32863 33039 ft 491 kts 134°
2026-04-24 20:23 39.69908 33.39710 33036 ft 492 kts 134°
2026-04-24 20:24 39.65544 33.46550 33039 ft 492 kts 134°
2026-04-24 20:24 39.61175 33.53386 33039 ft 493 kts 135°
2026-04-24 20:25 39.56799 33.60233 33046 ft 494 kts 134°
2026-04-24 20:25 39.52502 33.67204 33035 ft 496 kts 134°
2026-04-24 20:26 39.48203 33.74211 33044 ft 497 kts 134°
2026-04-24 20:26 39.43856 33.81177 33048 ft 497 kts 136°
2026-04-24 20:27 39.39386 33.88017 33045 ft 498 kts 137°
2026-04-24 20:27 39.34909 33.94866 33037 ft 499 kts 137°
2026-04-24 20:28 39.30446 34.01748 33044 ft 500 kts 136°
2026-04-24 20:28 39.25998 34.08659 33041 ft 500 kts 136°
2026-04-24 20:29 39.21581 34.15508 33054 ft 500 kts 136°
2026-04-24 20:29 39.17118 34.22405 33045 ft 501 kts 136°
2026-04-24 20:30 39.12705 34.29388 33045 ft 506 kts 130°
2026-04-24 20:30 39.08811 34.37038 33051 ft 503 kts 135°
2026-04-24 20:31 39.04390 34.43872 33049 ft 499 kts 138°
2026-04-24 20:31 38.99847 34.50631 33069 ft 499 kts 137°
2026-04-24 20:32 38.95351 34.57447 33070 ft 500 kts 137°
2026-04-24 20:32 38.90889 34.64302 33065 ft 500 kts 137°
2026-04-24 20:33 38.86437 34.71146 33067 ft 499 kts 137°
2026-04-24 20:33 38.81982 34.77973 33068 ft 499 kts 137°
2026-04-24 20:34 38.77520 34.84789 33063 ft 499 kts 137°
2026-04-24 20:34 38.73060 34.91587 33050 ft 498 kts 137°
2026-04-24 20:35 38.68607 34.98362 33042 ft 497 kts 137°
2026-04-24 20:35 38.64158 35.05115 33038 ft 496 kts 137°
2026-04-24 20:36 38.59715 35.11846 33033 ft 494 kts 137°
2026-04-24 20:36 38.55285 35.18545 33032 ft 493 kts 137°
2026-04-24 20:37 38.50853 35.25210 33052 ft 491 kts 138°
2026-04-24 20:37 38.46363 35.31784 33041 ft 491 kts 139°
2026-04-24 20:38 38.41852 35.38343 33026 ft 491 kts 139°
2026-04-24 20:38 38.37352 35.44896 33021 ft 491 kts 138°
2026-04-24 20:39 38.32856 35.51443 33015 ft 491 kts 138°
2026-04-24 20:39 38.28352 35.57991 33012 ft 491 kts 138°
2026-04-24 20:40 38.23851 35.64519 33021 ft 490 kts 138°
2026-04-24 20:40 38.19350 35.71035 33019 ft 490 kts 138°
2026-04-24 20:41 38.14880 35.77494 33014 ft 490 kts 138°
2026-04-24 20:41 38.10365 35.83982 32991 ft 490 kts 139°
2026-04-24 20:42 38.05844 35.90451 32995 ft 489 kts 139°
2026-04-24 20:42 38.01325 35.96910 33005 ft 490 kts 139°
2026-04-24 20:43 37.96792 36.03379 32999 ft 490 kts 139°
2026-04-24 20:43 37.92263 36.09832 33019 ft 490 kts 139°
2026-04-24 20:44 37.87728 36.16281 33003 ft 490 kts 139°
2026-04-24 20:44 37.83190 36.22723 33004 ft 490 kts 138°
2026-04-24 20:45 37.78686 36.29213 33008 ft 490 kts 138°
2026-04-24 20:45 37.74194 36.35697 33001 ft 489 kts 138°
2026-04-24 20:46 37.69684 36.42046 32985 ft 488 kts 139°
2026-04-24 20:46 37.65147 36.48394 33000 ft 487 kts 139°
2026-04-24 20:47 37.60643 36.54769 33004 ft 486 kts 139°
2026-04-24 20:47 37.56148 36.61141 32987 ft 486 kts 139°
2026-04-24 20:48 37.51651 36.67495 32999 ft 485 kts 138°
2026-04-24 20:48 37.49411 36.70657 32845 ft 480 kts 139°
2026-04-24 20:48 37.47211 36.73790 32296 ft 476 kts 139°
2026-04-24 20:49 37.45024 36.76914 31452 ft 478 kts 139°
2026-04-24 20:49 37.43560 36.79002 30809 ft 482 kts 139°
2026-04-24 20:49 37.41324 36.82186 29733 ft 489 kts 139°
2026-04-24 20:49 37.38290 36.86503 28256 ft 495 kts 138°
2026-04-24 20:50 37.36779 36.88655 27581 ft 496 kts 137°
2026-04-24 20:50 37.34502 36.91896 26939 ft 490 kts 137°
2026-04-24 20:50 37.32281 36.95063 26695 ft 476 kts 137°
2026-04-24 20:50 37.30112 36.98146 26429 ft 469 kts 138°
2026-04-24 20:51 37.27929 37.01230 26187 ft 477 kts 138°
2026-04-24 20:51 37.25708 37.04362 25947 ft 483 kts 137°
2026-04-24 20:51 37.23499 37.07548 25701 ft 484 kts 136°
2026-04-24 20:51 37.21322 37.10752 25440 ft 481 kts 136°
2026-04-24 20:52 37.19163 37.13946 25198 ft 479 kts 136°
2026-04-24 20:52 37.17014 37.17115 24949 ft 476 kts 136°
2026-04-24 20:52 37.14868 37.20261 24730 ft 473 kts 136°
2026-04-24 20:52 37.12730 37.23384 24481 ft 471 kts 136°
2026-04-24 20:53 37.10577 37.26464 24247 ft 468 kts 137°
2026-04-24 20:53 37.08386 37.29462 23691 ft 465 kts 138°
2026-04-24 20:53 37.06190 37.32411 23008 ft 460 kts 138°
2026-04-24 20:53 37.04021 37.35325 22333 ft 456 kts 138°
2026-04-24 20:54 37.01881 37.38223 21706 ft 451 kts 137°
2026-04-24 20:54 36.99770 37.41092 21061 ft 446 kts 137°
2026-04-24 20:54 36.97568 37.43691 20446 ft 433 kts 151°
2026-04-24 20:54 36.94886 37.45291 19901 ft 414 kts 169°
2026-04-24 20:55 36.92094 37.45922 19212 ft 404 kts 182°
2026-04-24 20:55 36.89334 37.45704 18608 ft 393 kts 195°
2026-04-24 20:55 36.86688 37.44963 17968 ft 388 kts 198°
2026-04-24 20:55 36.84075 37.44155 17323 ft 385 kts 198°
2026-04-24 20:56 36.81489 37.43356 16736 ft 381 kts 198°
2026-04-24 20:56 36.78960 37.42592 16155 ft 377 kts 197°
2026-04-24 20:56 36.76414 37.41841 15593 ft 374 kts 197°
2026-04-24 20:56 36.73856 37.41099 15013 ft 371 kts 197°
2026-04-24 20:57 36.71384 37.40385 14467 ft 369 kts 197°
2026-04-24 20:57 36.68931 37.39651 13894 ft 367 kts 198°
2026-04-24 20:57 36.66467 37.38845 13281 ft 365 kts 198°
2026-04-24 20:57 36.64250 37.38096 12743 ft 362 kts 199°
2026-04-24 20:58 36.61819 37.37190 12175 ft 358 kts 200°
2026-04-24 20:58 36.59450 37.36269 11626 ft 355 kts 200°
2026-04-24 20:58 36.57097 37.35351 11091 ft 353 kts 200°
2026-04-24 20:58 36.54793 37.34459 10915 ft 340 kts 200°
2026-04-24 20:59 36.52574 37.33607 10755 ft 328 kts 200°
2026-04-24 20:59 36.50435 37.32789 10602 ft 316 kts 200°
2026-04-24 20:59 36.48398 37.32011 10471 ft 305 kts 200°
2026-04-24 20:59 36.46407 37.31252 10351 ft 294 kts 200°
2026-04-24 21:00 36.44482 37.30520 10224 ft 284 kts 200°
2026-04-24 21:00 36.42626 37.29814 10111 ft 274 kts 200°
2026-04-24 21:00 36.40832 37.29134 9990 ft 265 kts 201°
2026-04-24 21:00 36.39065 37.28481 9674 ft 265 kts 200°
2026-04-24 21:01 36.37292 37.27847 9365 ft 266 kts 200°
2026-04-24 21:01 36.35514 37.27214 9039 ft 266 kts 199°
2026-04-24 21:01 36.33735 37.26581 8718 ft 265 kts 199°
2026-04-24 21:01 36.31965 37.25950 8394 ft 264 kts 199°
2026-04-24 21:02 36.30203 37.25322 8076 ft 263 kts 199°
2026-04-24 21:02 36.28444 37.24695 7758 ft 263 kts 199°
2026-04-24 21:02 36.26690 37.24070 7435 ft 262 kts 199°
2026-04-24 21:02 36.24925 37.23481 7101 ft 264 kts 192°
2026-04-24 21:03 36.23089 37.23642 6769 ft 270 kts 165°
2026-04-24 21:03 36.21441 37.24789 6448 ft 277 kts 140°
2026-04-24 21:03 36.20318 37.26738 6085 ft 283 kts 113°
2026-04-24 21:03 36.20003 37.29131 5731 ft 285 kts 86°
2026-04-24 21:04 36.20418 37.31516 5394 ft 284 kts 73°
2026-04-24 21:04 36.20996 37.33856 5032 ft 285 kts 72°
2026-04-24 21:04 36.21574 37.36203 4674 ft 285 kts 72°
2026-04-24 21:04 36.21897 37.38606 4312 ft 285 kts 98°
2026-04-24 21:05 36.21147 37.40793 4026 ft 275 kts 135°
2026-04-24 21:05 36.19588 37.41987 3758 ft 259 kts 172°
2026-04-24 21:05 36.17936 37.41756 3667 ft 230 kts 211°
2026-04-24 21:05 36.16897 37.40398 3391 ft 212 kts 253°
2026-04-24 21:06 36.16721 37.38636 3211 ft 204 kts 271°
2026-04-24 21:06 36.16740 37.36954 3066 ft 187 kts 274°
2026-04-24 21:06 36.16849 37.35416 3017 ft 176 kts 276°
2026-04-24 21:06 36.16989 37.33913 2849 ft 176 kts 277°
2026-04-24 21:07 36.17126 37.32466 2695 ft 160 kts 277°
2026-04-24 21:07 36.17246 37.31188 2462 ft 143 kts 278°
2026-04-24 21:07 36.17356 37.30020 2270 ft 130 kts 277°
2026-04-24 21:07 36.17462 37.28888 2146 ft 145 kts 277°
2026-04-24 21:08 36.17582 37.27619 1901 ft 147 kts 277°
2026-04-24 21:08 36.17696 37.26368 1706 ft 146 kts 276°
2026-04-24 21:08 36.17823 37.25120 1477 ft 147 kts 276°
2026-04-24 21:08 36.17930 37.23861 1280 ft 147 kts 274°
2026-04-24 21:09 36.18024 37.22859 1271 ft 52 kts 276°
2026-04-24 21:09 36.18066 37.22687 1271 ft 11 kts 341°
2026-04-24 21:09 36.18140 37.22684 1272 ft 11 kts
2026-04-24 21:09 36.18212 37.22694 1273 ft 10 kts
2026-04-24 21:10 36.18280 37.22703 1274 ft 10 kts 354°
2026-04-24 21:10 36.18342 37.22689 1273 ft 9 kts
2026-04-24 21:10 36.18373 37.22691 1273 ft 0 kts 355°